Time,TemperatureF,DewpointF,PressureIn,WindDirection,WindDirectionDegrees,WindSpeedMPH,WindSpeedGustMPH,Humidity,HourlyPrecipIn,Conditions,Clouds,dailyrainin,SoftwareType,DateUTC
2013-06-15 00:02:00,61.5,58.6,29.92,South,180,4.0,4.0,90,0.00,,,0.00,meteohub,2013-06-15 07:02:00,
2013-06-15 00:07:00,61.5,58.6,29.91,West,270,2.0,4.0,90,0.00,,,0.00,meteohub,2013-06-15 07:07:00,
2013-06-15 00:12:00,61.5,58.6,29.92,WSW,248,4.0,4.0,90,0.00,,,0.00,meteohub,2013-06-15 07:12:00,
2013-06-15 00:17:00,61.7,58.5,29.92,West,270,2.0,4.0,89,0.00,,,0.00,meteohub,2013-06-15 07:17:00,
2013-06-15 00:22:00,61.5,58.3,29.92,South,180,2.0,4.0,89,0.00,,,0.00,meteohub,2013-06-15 07:22:00,
2013-06-15 00:27:00,61.5,58.3,29.92,South,180,4.0,4.0,89,0.00,,,0.00,meteohub,2013-06-15 07:27:00,
2013-06-15 00:32:00,61.5,58.3,29.93,West,270,3.0,4.0,89,0.00,,,0.00,meteohub,2013-06-15 07:32:00,
2013-06-15 00:37:00,61.5,58.3,29.92,West,270,4.0,4.0,89,0.00,,,0.00,meteohub,2013-06-15 07:37:00,
2013-06-15 00:42:00,61.7,58.5,29.93,WSW,248,8.0,8.0,89,0.00,,,0.00,meteohub,2013-06-15 07:42:00,
2013-06-15 00:47:00,61.7,58.5,29.92,South,180,4.0,8.0,89,0.00,,,0.00,meteohub,2013-06-15 07:47:00,
2013-06-15 00:52:00,61.7,58.5,29.92,West,270,2.0,8.0,89,0.00,,,0.00,meteohub,2013-06-15 07:52:00,
2013-06-15 00:57:00,61.7,58.5,29.92,WSW,248,2.0,8.0,89,0.00,,,0.00,meteohub,2013-06-15 07:57:00,
2013-06-15 01:02:00,61.7,58.5,29.93,SW,225,2.0,4.0,89,0.00,,,0.00,meteohub,2013-06-15 08:02:00,
2013-06-15 01:07:00,61.7,58.1,29.92,West,270,2.0,4.0,88,0.00,,,0.00,meteohub,2013-06-15 08:07:00,
2013-06-15 01:12:00,61.7,58.1,29.92,West,270,1.0,4.0,88,0.00,,,0.00,meteohub,2013-06-15 08:12:00,
2013-06-15 01:17:00,61.7,58.1,29.93,SW,225,2.0,4.0,88,0.00,,,0.00,meteohub,2013-06-15 08:17:00,
2013-06-15 01:22:00,61.7,58.1,29.93,South,180,2.0,4.0,88,0.00,,,0.00,meteohub,2013-06-15 08:22:00,
2013-06-15 01:27:00,61.7,58.1,29.92,South,180,4.0,4.0,88,0.00,,,0.00,meteohub,2013-06-15 08:27:00,
2013-06-15 01:32:00,61.7,58.1,29.92,South,180,2.0,5.0,88,0.00,,,0.00,meteohub,2013-06-15 08:32:00,
2013-06-15 01:37:00,61.9,58.3,29.92,South,180,4.0,5.0,88,0.00,,,0.00,meteohub,2013-06-15 08:37:00,
2013-06-15 01:42:00,61.9,58.3,29.92,South,180,2.0,5.0,88,0.00,,,0.00,meteohub,2013-06-15 08:42:00,
2013-06-15 01:47:00,61.9,58.3,29.92,West,270,1.0,4.0,88,0.00,,,0.00,meteohub,2013-06-15 08:47:00,
2013-06-15 01:52:00,61.9,58.3,29.92,South,180,4.0,4.0,88,0.00,,,0.00,meteohub,2013-06-15 08:52:00,
2013-06-15 01:57:00,61.9,58.3,29.92,West,270,2.0,4.0,88,0.00,,,0.00,meteohub,2013-06-15 08:57:00,
2013-06-15 02:02:00,61.9,58.3,29.91,NW,315,2.0,4.0,88,0.00,,,0.00,meteohub,2013-06-15 09:02:00,
2013-06-15 02:07:00,61.9,58.3,29.92,NW,315,2.0,4.0,88,0.00,,,0.00,meteohub,2013-06-15 09:07:00,
2013-06-15 02:12:00,61.9,58.3,29.91,West,270,3.0,4.0,88,0.00,,,0.00,meteohub,2013-06-15 09:12:00,
2013-06-15 02:17:00,61.9,58.3,29.91,West,270,4.0,4.0,88,0.00,,,0.00,meteohub,2013-06-15 09:17:00,
2013-06-15 02:22:00,61.9,58.3,29.91,West,270,1.0,4.0,88,0.00,,,0.00,meteohub,2013-06-15 09:22:00,
2013-06-15 02:27:00,61.9,58.3,29.91,South,180,3.0,4.0,88,0.00,,,0.00,meteohub,2013-06-15 09:27:00,
2013-06-15 02:32:00,61.9,58.3,29.92,South,180,2.0,4.0,88,0.00,,,0.00,meteohub,2013-06-15 09:32:00,
2013-06-15 02:37:00,61.7,58.1,29.92,South,180,1.0,6.0,88,0.00,,,0.00,meteohub,2013-06-15 09:37:00,
2013-06-15 02:42:00,61.7,58.1,29.91,South,180,2.0,6.0,88,0.00,,,0.00,meteohub,2013-06-15 09:42:00,
2013-06-15 02:47:00,61.7,58.1,29.92,South,180,2.0,6.0,88,0.00,,,0.00,meteohub,2013-06-15 09:47:00,
2013-06-15 02:52:00,61.7,58.1,29.92,WNW,293,2.0,3.0,88,0.00,,,0.00,meteohub,2013-06-15 09:52:00,
2013-06-15 02:57:00,61.7,58.1,29.92,WNW,293,1.0,3.0,88,0.00,,,0.00,meteohub,2013-06-15 09:57:00,
2013-06-15 03:02:00,61.7,58.1,29.92,South,180,2.0,3.0,88,0.00,,,0.00,meteohub,2013-06-15 10:02:00,
2013-06-15 03:07:00,61.7,58.1,29.92,South,180,2.0,2.0,88,0.00,,,0.00,meteohub,2013-06-15 10:07:00,
2013-06-15 03:12:00,61.7,58.1,29.92,West,270,2.0,2.0,88,0.00,,,0.00,meteohub,2013-06-15 10:12:00,
2013-06-15 03:17:00,61.7,58.1,29.92,West,270,2.0,3.0,88,0.00,,,0.00,meteohub,2013-06-15 10:17:00,
2013-06-15 03:22:00,61.7,58.1,29.92,West,270,3.0,3.0,88,0.00,,,0.00,meteohub,2013-06-15 10:22:00,
2013-06-15 03:27:00,61.7,58.1,29.92,West,270,2.0,4.0,88,0.00,,,0.00,meteohub,2013-06-15 10:27:00,
2013-06-15 03:32:00,61.9,58.3,29.92,South,180,3.0,4.0,88,0.00,,,0.00,meteohub,2013-06-15 10:32:00,
2013-06-15 03:37:00,61.7,58.1,29.92,South,180,2.0,4.0,88,0.00,,,0.00,meteohub,2013-06-15 10:37:00,
2013-06-15 03:42:00,61.7,58.1,29.92,WNW,293,2.0,5.0,88,0.00,,,0.00,meteohub,2013-06-15 10:42:00,
2013-06-15 03:47:00,61.7,58.1,29.92,West,270,1.0,5.0,88,0.00,,,0.00,meteohub,2013-06-15 10:47:00,
2013-06-15 03:52:00,61.7,58.1,29.92,West,270,5.0,5.0,88,0.00,,,0.00,meteohub,2013-06-15 10:52:00,
2013-06-15 03:57:00,61.7,58.1,29.92,WNW,293,4.0,4.0,88,0.00,,,0.00,meteohub,2013-06-15 10:57:00,
2013-06-15 04:02:00,61.7,58.1,29.92,West,270,4.0,6.0,88,0.00,,,0.00,meteohub,2013-06-15 11:02:00,
2013-06-15 04:07:00,61.7,58.1,29.92,West,270,4.0,6.0,88,0.00,,,0.00,meteohub,2013-06-15 11:07:00,
2013-06-15 04:12:00,61.7,58.1,29.92,West,270,3.0,5.0,88,0.00,,,0.00,meteohub,2013-06-15 11:12:00,
2013-06-15 04:17:00,61.7,58.1,29.92,West,270,2.0,6.0,88,0.00,,,0.00,meteohub,2013-06-15 11:17:00,
2013-06-15 04:22:00,61.7,58.1,29.92,West,270,2.0,6.0,88,0.00,,,0.00,meteohub,2013-06-15 11:22:00,
2013-06-15 04:27:00,61.7,58.1,29.93,SSE,158,1.0,4.0,88,0.00,,,0.00,meteohub,2013-06-15 11:27:00,
2013-06-15 04:32:00,61.7,58.1,29.93,West,270,2.0,4.0,88,0.00,,,0.00,meteohub,2013-06-15 11:32:00,
2013-06-15 04:37:00,61.5,57.9,29.93,SSE,158,4.0,4.0,88,0.00,,,0.00,meteohub,2013-06-15 11:37:00,
2013-06-15 04:42:00,61.7,57.7,29.93,South,180,2.0,4.0,87,0.00,,,0.00,meteohub,2013-06-15 11:42:00,
2013-06-15 04:47:00,61.7,57.7,29.93,West,270,3.0,4.0,87,0.00,,,0.00,meteohub,2013-06-15 11:47:00,
2013-06-15 04:52:00,61.5,57.6,29.93,West,270,2.0,4.0,87,0.00,,,0.00,meteohub,2013-06-15 11:52:00,
2013-06-15 04:57:00,61.5,57.6,29.93,SSE,158,2.0,4.0,87,0.00,,,0.00,meteohub,2013-06-15 11:57:00,
2013-06-15 05:02:00,61.5,57.6,29.94,South,180,3.0,4.0,87,0.00,,,0.00,meteohub,2013-06-15 12:02:00,
2013-06-15 05:07:00,61.5,57.6,29.94,South,180,2.0,4.0,87,0.00,,,0.00,meteohub,2013-06-15 12:07:00,
2013-06-15 05:12:00,61.5,57.6,29.94,West,270,3.0,4.0,87,0.00,,,0.00,meteohub,2013-06-15 12:12:00,
2013-06-15 05:17:00,61.5,57.9,29.94,West,270,5.0,5.0,88,0.00,,,0.00,meteohub,2013-06-15 12:17:00,
2013-06-15 05:22:00,61.5,57.9,29.94,West,270,2.0,5.0,88,0.00,,,0.00,meteohub,2013-06-15 12:22:00,
2013-06-15 05:27:00,61.5,57.9,29.94,West,270,3.0,5.0,88,0.00,,,0.00,meteohub,2013-06-15 12:27:00,
2013-06-15 05:32:00,61.5,57.9,29.94,West,270,2.0,5.0,88,0.00,,,0.00,meteohub,2013-06-15 12:32:00,
2013-06-15 05:37:00,61.3,57.7,29.94,West,270,2.0,5.0,88,0.00,,,0.00,meteohub,2013-06-15 12:37:00,
2013-06-15 05:43:00,61.3,57.7,29.94,South,180,2.0,5.0,88,0.00,,,0.00,meteohub,2013-06-15 12:43:00,
2013-06-15 05:48:00,61.3,57.7,29.94,SE,135,2.0,4.0,88,0.00,,,0.00,meteohub,2013-06-15 12:48:00,
2013-06-15 05:53:00,61.2,57.6,29.95,SE,135,2.0,4.0,88,0.00,,,0.00,meteohub,2013-06-15 12:53:00,
2013-06-15 05:58:00,61.3,57.7,29.95,SE,135,2.0,4.0,88,0.00,,,0.00,meteohub,2013-06-15 12:58:00,
2013-06-15 06:03:00,61.3,57.7,29.95,ESE,113,1.0,3.0,88,0.00,,,0.00,meteohub,2013-06-15 13:03:00,
2013-06-15 06:08:00,61.5,57.9,29.95,East,90,3.0,3.0,88,0.00,,,0.00,meteohub,2013-06-15 13:08:00,
2013-06-15 06:13:00,61.5,57.9,29.95,SE,135,2.0,3.0,88,0.00,,,0.00,meteohub,2013-06-15 13:13:00,
2013-06-15 06:18:00,61.5,57.9,29.95,SE,135,1.0,4.0,88,0.00,,,0.00,meteohub,2013-06-15 13:18:00,
2013-06-15 06:23:00,61.5,57.9,29.95,SE,135,2.0,4.0,88,0.00,,,0.00,meteohub,2013-06-15 13:23:00,
2013-06-15 06:28:00,61.7,58.1,29.96,West,270,4.0,4.0,88,0.00,,,0.00,meteohub,2013-06-15 13:28:00,
2013-06-15 06:33:00,61.7,58.1,29.96,West,270,3.0,4.0,88,0.00,,,0.00,meteohub,2013-06-15 13:33:00,
2013-06-15 06:38:00,61.7,58.1,29.96,West,270,3.0,4.0,88,0.00,,,0.00,meteohub,2013-06-15 13:38:00,
2013-06-15 06:43:00,61.9,58.3,29.96,West,270,4.0,4.0,88,0.00,,,0.00,meteohub,2013-06-15 13:43:00,
2013-06-15 06:48:00,61.9,57.9,29.96,West,270,1.0,4.0,87,0.00,,,0.00,meteohub,2013-06-15 13:48:00,
2013-06-15 06:53:00,61.9,57.9,29.96,West,270,2.0,4.0,87,0.00,,,0.00,meteohub,2013-06-15 13:53:00,
2013-06-15 06:58:00,62.1,58.1,29.96,West,270,4.0,4.0,87,0.00,,,0.00,meteohub,2013-06-15 13:58:00,
2013-06-15 07:03:00,62.1,58.1,29.96,South,180,2.0,4.0,87,0.00,,,0.00,meteohub,2013-06-15 14:03:00,
2013-06-15 07:08:00,62.2,58.3,29.96,West,270,2.0,4.0,87,0.00,,,0.00,meteohub,2013-06-15 14:08:00,
2013-06-15 07:13:00,62.2,58.3,29.97,South,180,2.0,4.0,87,0.00,,,0.00,meteohub,2013-06-15 14:13:00,
2013-06-15 07:18:00,62.2,57.9,29.96,West,270,4.0,5.0,86,0.00,,,0.00,meteohub,2013-06-15 14:18:00,
2013-06-15 07:23:00,62.2,57.9,29.96,West,270,1.0,5.0,86,0.00,,,0.00,meteohub,2013-06-15 14:23:00,
2013-06-15 07:28:00,62.2,57.9,29.97,West,270,2.0,4.0,86,0.00,,,0.00,meteohub,2013-06-15 14:28:00,
2013-06-15 07:33:00,62.4,58.1,29.96,West,270,6.0,6.0,86,0.00,,,0.00,meteohub,2013-06-15 14:33:00,
2013-06-15 07:38:00,62.4,57.9,29.96,West,270,5.0,6.0,85,0.00,,,0.00,meteohub,2013-06-15 14:38:00,
2013-06-15 07:43:00,62.4,57.9,29.97,West,270,6.0,6.0,85,0.00,,,0.00,meteohub,2013-06-15 14:43:00,
2013-06-15 07:48:00,62.6,58.1,29.97,West,270,2.0,6.0,85,0.00,,,0.00,meteohub,2013-06-15 14:48:00,
2013-06-15 07:53:00,62.6,58.1,29.97,South,180,3.0,7.0,85,0.00,,,0.00,meteohub,2013-06-15 14:53:00,
2013-06-15 07:58:00,62.8,58.3,29.97,SE,135,2.0,7.0,85,0.00,,,0.00,meteohub,2013-06-15 14:58:00,
2013-06-15 08:03:00,62.8,57.9,29.97,SE,135,1.0,4.0,84,0.00,,,0.00,meteohub,2013-06-15 15:03:00,
2013-06-15 08:08:00,63.0,58.5,29.97,SE,135,2.0,4.0,85,0.00,,,0.00,meteohub,2013-06-15 15:08:00,
2013-06-15 08:13:00,63.1,58.6,29.98,SE,135,1.0,3.0,85,0.00,,,0.00,meteohub,2013-06-15 15:13:00,
2013-06-15 08:18:00,63.3,58.1,29.98,SE,135,0.0,2.0,83,0.00,,,0.00,meteohub,2013-06-15 15:18:00,
2013-06-15 08:23:00,63.5,58.3,29.98,SE,135,1.0,3.0,83,0.00,,,0.00,meteohub,2013-06-15 15:23:00,
2013-06-15 08:28:00,63.7,58.5,29.98,SE,135,2.0,3.0,83,0.00,,,0.00,meteohub,2013-06-15 15:28:00,
2013-06-15 08:33:00,63.5,57.9,29.98,SE,135,2.0,3.0,82,0.00,,,0.00,meteohub,2013-06-15 15:33:00,
2013-06-15 08:38:00,63.3,57.7,29.98,West,270,2.0,3.0,82,0.00,,,0.00,meteohub,2013-06-15 15:38:00,
2013-06-15 08:43:00,63.3,58.1,29.98,West,270,1.0,3.0,83,0.00,,,0.00,meteohub,2013-06-15 15:43:00,
2013-06-15 08:48:00,63.5,58.3,29.98,SW,225,1.0,4.0,83,0.00,,,0.00,meteohub,2013-06-15 15:48:00,
2013-06-15 08:53:00,63.5,57.9,29.99,NW,315,2.0,4.0,82,0.00,,,0.00,meteohub,2013-06-15 15:53:00,
2013-06-15 08:58:00,63.7,58.5,29.99,South,180,3.0,4.0,83,0.00,,,0.00,meteohub,2013-06-15 15:58:00,
2013-06-15 09:03:00,64.0,58.5,29.98,West,270,3.0,4.0,82,0.00,,,0.00,meteohub,2013-06-15 16:03:00,
2013-06-15 09:08:00,64.4,58.8,29.99,SE,135,0.0,4.0,82,0.00,,,0.00,meteohub,2013-06-15 16:08:00,
2013-06-15 09:13:00,64.6,58.3,29.99,South,180,3.0,4.0,80,0.00,,,0.00,meteohub,2013-06-15 16:13:00,
2013-06-15 09:18:00,65.3,59.0,29.99,SE,135,3.0,5.0,80,0.00,,,0.00,meteohub,2013-06-15 16:18:00,
2013-06-15 09:23:00,66.0,59.4,29.98,South,180,2.0,5.0,79,0.00,,,0.00,meteohub,2013-06-15 16:23:00,
2013-06-15 09:28:00,66.7,59.0,29.99,SE,135,2.0,5.0,76,0.00,,,0.00,meteohub,2013-06-15 16:28:00,
2013-06-15 09:33:00,68.0,59.7,29.99,South,180,2.0,3.0,75,0.00,,,0.00,meteohub,2013-06-15 16:33:00,
2013-06-15 09:38:00,68.4,59.4,29.99,NW,315,1.0,4.0,73,0.00,,,0.00,meteohub,2013-06-15 16:38:00,
2013-06-15 09:43:00,68.9,59.2,29.98,South,180,3.0,4.0,71,0.00,,,0.00,meteohub,2013-06-15 16:43:00,
2013-06-15 09:48:00,69.6,58.6,29.98,West,270,4.0,4.0,68,0.00,,,0.00,meteohub,2013-06-15 16:48:00,
2013-06-15 09:53:00,69.6,58.6,29.98,SE,135,4.0,4.0,68,0.00,,,0.00,meteohub,2013-06-15 16:53:00,
2013-06-15 09:58:00,70.0,59.0,29.99,SE,135,2.0,5.0,68,0.00,,,0.00,meteohub,2013-06-15 16:58:00,
2013-06-15 10:03:00,70.2,57.9,29.99,South,180,4.0,5.0,65,0.00,,,0.00,meteohub,2013-06-15 17:03:00,
2013-06-15 10:08:00,70.0,58.1,29.99,South,180,2.0,5.0,66,0.00,,,0.00,meteohub,2013-06-15 17:08:00,
2013-06-15 10:13:00,70.3,57.6,29.99,West,270,3.0,4.0,64,0.00,,,0.00,meteohub,2013-06-15 17:13:00,
2013-06-15 10:18:00,73.4,58.6,29.98,West,270,2.0,4.0,60,0.00,,,0.00,meteohub,2013-06-15 17:18:00,
2013-06-15 10:23:00,77.4,57.7,29.98,South,180,3.0,3.0,51,0.00,,,0.00,meteohub,2013-06-15 17:23:00,
2013-06-15 10:28:00,75.6,56.7,29.98,South,180,2.0,4.0,52,0.00,,,0.00,meteohub,2013-06-15 17:28:00,
2013-06-15 10:33:00,76.6,58.3,29.99,NW,315,3.0,5.0,53,0.00,,,0.00,meteohub,2013-06-15 17:33:00,
2013-06-15 10:38:00,74.5,57.7,29.99,West,270,4.0,7.0,56,0.00,,,0.00,meteohub,2013-06-15 17:38:00,
2013-06-15 10:43:00,72.1,57.9,29.99,NW,315,8.0,8.0,61,0.00,,,0.00,meteohub,2013-06-15 17:43:00,
2013-06-15 10:48:00,70.2,58.6,29.99,NW,315,6.0,8.0,67,0.00,,,0.00,meteohub,2013-06-15 17:48:00,
2013-06-15 10:53:00,70.0,58.5,29.99,NW,315,8.0,10.0,67,0.00,,,0.00,meteohub,2013-06-15 17:53:00,
2013-06-15 10:58:00,70.2,58.6,29.99,West,270,6.0,10.0,67,0.00,,,0.00,meteohub,2013-06-15 17:58:00,
2013-06-15 11:03:00,70.9,58.1,29.99,NW,315,8.0,9.0,64,0.00,,,0.00,meteohub,2013-06-15 18:03:00,
2013-06-15 11:08:00,70.2,58.3,29.99,West,270,9.0,9.0,66,0.00,,,0.00,meteohub,2013-06-15 18:08:00,
2013-06-15 11:13:00,71.2,58.8,29.99,NW,315,4.0,11.0,65,0.00,,,0.00,meteohub,2013-06-15 18:13:00,
2013-06-15 11:18:00,71.1,58.3,29.99,NW,315,7.0,11.0,64,0.00,,,0.00,meteohub,2013-06-15 18:18:00,
2013-06-15 11:23:00,70.3,58.1,29.98,NW,315,10.0,10.0,65,0.00,,,0.00,meteohub,2013-06-15 18:23:00,
2013-06-15 11:28:00,72.5,59.2,29.98,NW,315,10.0,11.0,63,0.00,,,0.00,meteohub,2013-06-15 18:28:00,
2013-06-15 11:33:00,71.2,58.5,29.98,WNW,293,10.0,11.0,64,0.00,,,0.00,meteohub,2013-06-15 18:33:00,
2013-06-15 11:38:00,70.7,58.8,29.98,NW,315,8.0,12.0,66,0.00,,,0.00,meteohub,2013-06-15 18:38:00,
2013-06-15 11:43:00,71.8,59.0,29.99,West,270,8.0,12.0,64,0.00,,,0.00,meteohub,2013-06-15 18:43:00,
2013-06-15 11:48:00,72.1,58.5,29.99,West,270,7.0,12.0,62,0.00,,,0.00,meteohub,2013-06-15 18:48:00,
2013-06-15 11:53:00,72.1,57.9,29.99,West,270,8.0,8.0,61,0.00,,,0.00,meteohub,2013-06-15 18:53:00,
2013-06-15 11:58:00,72.3,57.7,29.99,North,0,11.0,11.0,60,0.00,,,0.00,meteohub,2013-06-15 18:58:00,
2013-06-15 12:03:00,72.0,58.3,29.98,WNW,293,7.0,13.0,62,0.00,,,0.00,meteohub,2013-06-15 19:03:00,
2013-06-15 12:08:00,72.9,58.1,29.98,NW,315,7.0,13.0,60,0.00,,,0.00,meteohub,2013-06-15 19:08:00,
2013-06-15 12:13:00,72.9,57.7,29.98,NW,315,9.0,13.0,59,0.00,,,0.00,meteohub,2013-06-15 19:13:00,
2013-06-15 12:18:00,72.7,57.9,29.98,West,270,12.0,12.0,60,0.00,,,0.00,meteohub,2013-06-15 19:18:00,
2013-06-15 12:23:00,71.2,57.9,29.98,WNW,293,8.0,12.0,63,0.00,,,0.00,meteohub,2013-06-15 19:23:00,
2013-06-15 12:28:00,72.7,57.6,29.99,West,270,9.0,12.0,59,0.00,,,0.00,meteohub,2013-06-15 19:28:00,
2013-06-15 12:33:00,71.8,58.1,29.99,West,270,12.0,12.0,62,0.00,,,0.00,meteohub,2013-06-15 19:33:00,
2013-06-15 12:38:00,71.6,57.9,29.99,West,270,10.0,12.0,62,0.00,,,0.00,meteohub,2013-06-15 19:38:00,
2013-06-15 12:43:00,71.1,57.7,29.98,NW,315,10.0,12.0,63,0.00,,,0.00,meteohub,2013-06-15 19:43:00,
2013-06-15 12:48:00,70.7,57.6,29.98,North,0,8.0,15.0,63,0.00,,,0.00,meteohub,2013-06-15 19:48:00,
2013-06-15 12:53:00,70.9,57.2,29.98,NW,315,8.0,15.0,62,0.00,,,0.00,meteohub,2013-06-15 19:53:00,
2013-06-15 12:58:00,70.3,57.6,29.98,West,270,8.0,15.0,64,0.00,,,0.00,meteohub,2013-06-15 19:58:00,
2013-06-15 13:03:00,71.4,58.1,29.98,West,270,9.0,12.0,63,0.00,,,0.00,meteohub,2013-06-15 20:03:00,
2013-06-15 13:08:00,72.1,57.9,29.98,NW,315,9.0,12.0,61,0.00,,,0.00,meteohub,2013-06-15 20:08:00,
2013-06-15 13:13:00,72.7,57.9,29.98,NW,315,8.0,12.0,60,0.00,,,0.00,meteohub,2013-06-15 20:13:00,
2013-06-15 13:18:00,72.9,58.1,29.98,West,270,9.0,11.0,60,0.00,,,0.00,meteohub,2013-06-15 20:18:00,
2013-06-15 13:23:00,72.9,57.7,29.98,West,270,9.0,10.0,59,0.00,,,0.00,meteohub,2013-06-15 20:23:00,
2013-06-15 13:28:00,72.5,58.3,29.97,West,270,5.0,9.0,61,0.00,,,0.00,meteohub,2013-06-15 20:28:00,
2013-06-15 13:33:00,73.2,58.1,29.97,NW,315,5.0,12.0,59,0.00,,,0.00,meteohub,2013-06-15 20:33:00,
2013-06-15 13:38:00,73.6,57.4,29.98,NW,315,8.0,12.0,57,0.00,,,0.00,meteohub,2013-06-15 20:38:00,
2013-06-15 13:43:00,73.4,57.2,29.97,NW,315,9.0,11.0,57,0.00,,,0.00,meteohub,2013-06-15 20:43:00,
2013-06-15 13:48:00,73.0,57.4,29.97,NW,315,11.0,11.0,58,0.00,,,0.00,meteohub,2013-06-15 20:48:00,
2013-06-15 13:53:00,72.7,57.9,29.97,North,0,8.0,11.0,60,0.00,,,0.00,meteohub,2013-06-15 20:53:00,
2013-06-15 13:58:00,72.5,57.4,29.97,West,270,6.0,12.0,59,0.00,,,0.00,meteohub,2013-06-15 20:58:00,
2013-06-15 14:03:00,72.5,57.4,29.97,NW,315,11.0,12.0,59,0.00,,,0.00,meteohub,2013-06-15 21:03:00,
2013-06-15 14:08:00,72.3,57.7,29.97,NW,315,12.0,12.0,60,0.00,,,0.00,meteohub,2013-06-15 21:08:00,
2013-06-15 14:13:00,72.3,57.2,29.97,NW,315,8.0,12.0,59,0.00,,,0.00,meteohub,2013-06-15 21:13:00,
2013-06-15 14:18:00,72.1,57.6,29.97,West,270,14.0,14.0,60,0.00,,,0.00,meteohub,2013-06-15 21:18:00,
2013-06-15 14:23:00,72.3,58.1,29.96,West,270,9.0,14.0,61,0.00,,,0.00,meteohub,2013-06-15 21:23:00,
2013-06-15 14:28:00,72.9,57.7,29.97,WNW,293,8.0,15.0,59,0.00,,,0.00,meteohub,2013-06-15 21:28:00,
2013-06-15 14:33:00,72.5,58.3,29.96,NW,315,11.0,15.0,61,0.00,,,0.00,meteohub,2013-06-15 21:33:00,
2013-06-15 14:38:00,73.4,57.7,29.96,NW,315,10.0,15.0,58,0.00,,,0.00,meteohub,2013-06-15 21:38:00,
2013-06-15 14:43:00,72.5,58.3,29.96,NW,315,11.0,12.0,61,0.00,,,0.00,meteohub,2013-06-15 21:43:00,
2013-06-15 14:48:00,72.3,57.7,29.96,North,0,12.0,13.0,60,0.00,,,0.00,meteohub,2013-06-15 21:48:00,
2013-06-15 14:53:00,72.7,57.9,29.96,NW,315,9.0,13.0,60,0.00,,,0.00,meteohub,2013-06-15 21:53:00,
2013-06-15 14:58:00,72.1,57.9,29.96,North,0,10.0,13.0,61,0.00,,,0.00,meteohub,2013-06-15 21:58:00,
2013-06-15 15:03:00,72.7,57.9,29.96,NW,315,12.0,15.0,60,0.00,,,0.00,meteohub,2013-06-15 22:03:00,
2013-06-15 15:08:00,72.5,57.7,29.96,West,270,10.0,15.0,60,0.00,,,0.00,meteohub,2013-06-15 22:08:00,
2013-06-15 15:14:00,72.5,58.3,29.96,NW,315,11.0,15.0,61,0.00,,,0.00,meteohub,2013-06-15 22:14:00,
2013-06-15 15:19:00,72.1,58.5,29.96,WNW,293,8.0,14.0,62,0.00,,,0.00,meteohub,2013-06-15 22:19:00,
2013-06-15 15:24:00,72.7,57.9,29.96,NW,315,12.0,14.0,60,0.00,,,0.00,meteohub,2013-06-15 22:24:00,
2013-06-15 15:29:00,72.0,58.6,29.96,West,270,8.0,15.0,63,0.00,,,0.00,meteohub,2013-06-15 22:29:00,
2013-06-15 15:34:00,72.9,58.6,29.96,West,270,8.0,15.0,61,0.00,,,0.00,meteohub,2013-06-15 22:34:00,
2013-06-15 15:39:00,73.0,60.1,29.96,NW,315,11.0,14.0,64,0.00,,,0.00,meteohub,2013-06-15 22:39:00,
2013-06-15 15:44:00,72.7,60.3,29.96,NW,315,13.0,14.0,65,0.00,,,0.00,meteohub,2013-06-15 22:44:00,
2013-06-15 15:49:00,72.1,60.1,29.96,NW,315,9.0,14.0,66,0.00,,,0.00,meteohub,2013-06-15 22:49:00,
2013-06-15 15:54:00,72.3,60.8,29.96,NW,315,15.0,15.0,67,0.00,,,0.00,meteohub,2013-06-15 22:54:00,
2013-06-15 15:59:00,71.6,60.8,29.96,NW,315,13.0,14.0,69,0.00,,,0.00,meteohub,2013-06-15 22:59:00,
2013-06-15 16:04:00,72.0,60.4,29.96,NW,315,11.0,15.0,67,0.00,,,0.00,meteohub,2013-06-15 23:04:00,
2013-06-15 16:09:00,71.6,60.4,29.96,WNW,293,11.0,15.0,68,0.00,,,0.00,meteohub,2013-06-15 23:09:00,
2013-06-15 16:14:00,72.3,60.3,29.95,NW,315,8.0,13.0,66,0.00,,,0.00,meteohub,2013-06-15 23:14:00,
2013-06-15 16:19:00,72.3,59.9,29.95,NW,315,12.0,14.0,65,0.00,,,0.00,meteohub,2013-06-15 23:19:00,
2013-06-15 16:24:00,72.1,60.1,29.95,WNW,293,11.0,14.0,66,0.00,,,0.00,meteohub,2013-06-15 23:24:00,
2013-06-15 16:29:00,72.1,59.7,29.95,West,270,11.0,13.0,65,0.00,,,0.00,meteohub,2013-06-15 23:29:00,
2013-06-15 16:34:00,71.8,59.4,29.95,NW,315,9.0,13.0,65,0.00,,,0.00,meteohub,2013-06-15 23:34:00,
2013-06-15 16:39:00,72.0,59.5,29.95,West,270,10.0,13.0,65,0.00,,,0.00,meteohub,2013-06-15 23:39:00,
2013-06-15 16:44:00,72.7,59.4,29.95,West,270,11.0,11.0,63,0.00,,,0.00,meteohub,2013-06-15 23:44:00,
2013-06-15 16:49:00,72.5,59.5,29.94,NW,315,11.0,11.0,64,0.00,,,0.00,meteohub,2013-06-15 23:49:00,
2013-06-15 16:54:00,72.3,59.9,29.94,NW,315,8.0,13.0,65,0.00,,,0.00,meteohub,2013-06-15 23:54:00,
2013-06-15 16:59:00,72.1,59.7,29.94,West,270,8.0,15.0,65,0.00,,,0.00,meteohub,2013-06-15 23:59:00,
2013-06-15 17:04:00,71.4,59.0,29.94,NW,315,11.0,15.0,65,0.00,,,0.00,meteohub,2013-06-16 00:04:00,
2013-06-15 17:09:00,71.1,59.2,29.94,NW,315,7.0,15.0,66,0.00,,,0.00,meteohub,2013-06-16 00:09:00,
2013-06-15 17:14:00,71.4,58.6,29.94,West,270,8.0,11.0,64,0.00,,,0.00,meteohub,2013-06-16 00:14:00,
2013-06-15 17:19:00,72.1,58.8,29.94,WNW,293,8.0,11.0,63,0.00,,,0.00,meteohub,2013-06-16 00:19:00,
2013-06-15 17:24:00,72.1,58.8,29.94,NW,315,11.0,11.0,63,0.00,,,0.00,meteohub,2013-06-16 00:24:00,
2013-06-15 17:29:00,71.6,58.8,29.94,NW,315,9.0,11.0,64,0.00,,,0.00,meteohub,2013-06-16 00:29:00,
2013-06-15 17:34:00,71.2,58.5,29.93,WNW,293,12.0,12.0,64,0.00,,,0.00,meteohub,2013-06-16 00:34:00,
2013-06-15 17:39:00,71.4,58.6,29.94,NW,315,9.0,11.0,64,0.00,,,0.00,meteohub,2013-06-16 00:39:00,
2013-06-15 17:44:00,71.6,59.2,29.94,NW,315,6.0,12.0,65,0.00,,,0.00,meteohub,2013-06-16 00:44:00,
2013-06-15 17:49:00,71.6,57.9,29.93,West,270,11.0,12.0,62,0.00,,,0.00,meteohub,2013-06-16 00:49:00,
2013-06-15 17:54:00,71.1,58.3,29.93,West,270,11.0,12.0,64,0.00,,,0.00,meteohub,2013-06-16 00:54:00,
2013-06-15 17:59:00,71.2,58.5,29.93,NW,315,11.0,11.0,64,0.00,,,0.00,meteohub,2013-06-16 00:59:00,
2013-06-15 18:04:00,70.7,58.8,29.93,NW,315,11.0,11.0,66,0.00,,,0.00,meteohub,2013-06-16 01:04:00,
2013-06-15 18:09:00,70.2,58.6,29.93,West,270,10.0,11.0,67,0.00,,,0.00,meteohub,2013-06-16 01:09:00,
2013-06-15 18:14:00,70.2,57.9,29.93,West,270,11.0,13.0,65,0.00,,,0.00,meteohub,2013-06-16 01:14:00,
2013-06-15 18:19:00,70.2,58.6,29.93,NW,315,10.0,15.0,67,0.00,,,0.00,meteohub,2013-06-16 01:19:00,
2013-06-15 18:24:00,70.5,58.6,29.93,NW,315,9.0,15.0,66,0.00,,,0.00,meteohub,2013-06-16 01:24:00,
2013-06-15 18:29:00,70.3,58.5,29.94,NW,315,9.0,15.0,66,0.00,,,0.00,meteohub,2013-06-16 01:29:00,
2013-06-15 18:34:00,70.0,58.5,29.93,NW,315,12.0,12.0,67,0.00,,,0.00,meteohub,2013-06-16 01:34:00,
2013-06-15 18:39:00,69.8,58.8,29.94,NW,315,11.0,12.0,68,0.00,,,0.00,meteohub,2013-06-16 01:39:00,
2013-06-15 18:44:00,70.0,59.4,29.94,NW,315,8.0,12.0,69,0.00,,,0.00,meteohub,2013-06-16 01:44:00,
2013-06-15 18:49:00,69.6,59.0,29.94,NW,315,7.0,12.0,69,0.00,,,0.00,meteohub,2013-06-16 01:49:00,
2013-06-15 18:54:00,69.4,59.2,29.94,NW,315,8.0,11.0,70,0.00,,,0.00,meteohub,2013-06-16 01:54:00,
2013-06-15 18:59:00,69.3,59.5,29.94,West,270,8.0,12.0,71,0.00,,,0.00,meteohub,2013-06-16 01:59:00,
2013-06-15 19:04:00,69.1,59.7,29.94,NW,315,10.0,12.0,72,0.00,,,0.00,meteohub,2013-06-16 02:04:00,
2013-06-15 19:09:00,69.1,59.7,29.94,West,270,8.0,12.0,72,0.00,,,0.00,meteohub,2013-06-16 02:09:00,
2013-06-15 19:14:00,68.7,59.4,29.94,WNW,293,9.0,11.0,72,0.00,,,0.00,meteohub,2013-06-16 02:14:00,
2013-06-15 19:19:00,68.5,59.5,29.95,NW,315,8.0,11.0,73,0.00,,,0.00,meteohub,2013-06-16 02:19:00,
2013-06-15 19:24:00,68.4,59.7,29.95,West,270,6.0,10.0,74,0.00,,,0.00,meteohub,2013-06-16 02:24:00,
2013-06-15 19:29:00,68.5,59.9,29.95,North,0,4.0,9.0,74,0.00,,,0.00,meteohub,2013-06-16 02:29:00,
2013-06-15 19:34:00,68.2,59.5,29.95,North,0,3.0,9.0,74,0.00,,,0.00,meteohub,2013-06-16 02:34:00,
2013-06-15 19:39:00,68.0,59.7,29.95,NW,315,8.0,9.0,75,0.00,,,0.00,meteohub,2013-06-16 02:39:00,
2013-06-15 19:44:00,67.3,59.5,29.95,NW,315,6.0,7.0,76,0.00,,,0.00,meteohub,2013-06-16 02:44:00,
2013-06-15 19:49:00,66.6,59.5,29.96,NW,315,9.0,9.0,78,0.00,,,0.00,meteohub,2013-06-16 02:49:00,
2013-06-15 19:54:00,66.2,59.9,29.96,WNW,293,8.0,8.0,80,0.00,,,0.00,meteohub,2013-06-16 02:54:00,
2013-06-15 19:59:00,65.8,59.5,29.96,NW,315,4.0,9.0,80,0.00,,,0.00,meteohub,2013-06-16 02:59:00,
2013-06-15 20:04:00,65.7,59.7,29.96,NW,315,7.0,10.0,81,0.00,,,0.00,meteohub,2013-06-16 03:04:00,
2013-06-15 20:09:00,65.5,59.5,29.96,NW,315,3.0,10.0,81,0.00,,,0.00,meteohub,2013-06-16 03:09:00,
2013-06-15 20:14:00,65.3,59.7,29.96,West,270,5.0,10.0,82,0.00,,,0.00,meteohub,2013-06-16 03:14:00,
2013-06-15 20:19:00,65.1,59.5,29.96,North,0,3.0,7.0,82,0.00,,,0.00,meteohub,2013-06-16 03:19:00,
2013-06-15 20:24:00,64.8,58.8,29.95,North,0,2.0,5.0,81,0.00,,,0.00,meteohub,2013-06-16 03:24:00,
2013-06-15 20:29:00,64.6,58.6,29.96,North,0,4.0,5.0,81,0.00,,,0.00,meteohub,2013-06-16 03:29:00,
2013-06-15 20:34:00,64.6,58.6,29.96,North,0,2.0,5.0,81,0.00,,,0.00,meteohub,2013-06-16 03:34:00,
2013-06-15 20:39:00,64.4,58.5,29.96,North,0,2.0,4.0,81,0.00,,,0.00,meteohub,2013-06-16 03:39:00,
2013-06-15 20:44:00,64.2,58.3,29.96,North,0,3.0,4.0,81,0.00,,,0.00,meteohub,2013-06-16 03:44:00,
2013-06-15 20:49:00,64.0,58.1,29.96,North,0,4.0,4.0,81,0.00,,,0.00,meteohub,2013-06-16 03:49:00,
2013-06-15 20:54:00,64.0,58.5,29.96,North,0,4.0,4.0,82,0.00,,,0.00,meteohub,2013-06-16 03:54:00,
2013-06-15 20:59:00,64.2,58.6,29.96,NW,315,5.0,5.0,82,0.00,,,0.00,meteohub,2013-06-16 03:59:00,
2013-06-15 21:01:00,64.2,58.6,29.96,NW,315,4.0,5.0,82,0.00,,,0.00,meteohub,2013-06-16 04:01:00,
2013-06-15 21:02:00,64.0,58.5,29.96,NW,315,2.0,5.0,82,0.00,,,0.00,meteohub,2013-06-16 04:02:00,
2013-06-15 21:07:00,63.9,58.3,29.96,North,0,4.0,5.0,82,0.00,,,0.00,meteohub,2013-06-16 04:07:00,
2013-06-15 21:12:00,63.7,58.1,29.96,North,0,1.0,5.0,82,0.00,,,0.00,meteohub,2013-06-16 04:12:00,
2013-06-15 21:17:00,63.5,58.3,29.97,North,0,4.0,4.0,83,0.00,,,0.00,meteohub,2013-06-16 04:17:00,
2013-06-15 21:22:00,63.5,58.3,29.97,North,0,2.0,4.0,83,0.00,,,0.00,meteohub,2013-06-16 04:22:00,
2013-06-15 21:27:00,63.1,58.3,29.97,North,0,2.0,4.0,84,0.00,,,0.00,meteohub,2013-06-16 04:27:00,
2013-06-15 21:32:00,63.3,58.8,29.97,North,0,2.0,4.0,85,0.00,,,0.00,meteohub,2013-06-16 04:32:00,
2013-06-15 21:37:00,63.3,58.8,29.97,North,0,3.0,4.0,85,0.00,,,0.00,meteohub,2013-06-16 04:37:00,
2013-06-15 21:42:00,63.3,58.8,29.98,NW,315,2.0,4.0,85,0.00,,,0.00,meteohub,2013-06-16 04:42:00,
2013-06-15 21:47:00,63.1,58.6,29.98,NW,315,3.0,4.0,85,0.00,,,0.00,meteohub,2013-06-16 04:47:00,
2013-06-15 21:52:00,63.1,58.8,29.99,NW,315,2.0,4.0,86,0.00,,,0.00,meteohub,2013-06-16 04:52:00,
2013-06-15 21:57:00,63.1,59.2,29.98,NW,315,3.0,3.0,87,0.00,,,0.00,meteohub,2013-06-16 04:57:00,
2013-06-15 22:02:00,63.3,59.7,29.99,West,270,3.0,4.0,88,0.00,,,0.00,meteohub,2013-06-16 05:02:00,
2013-06-15 22:07:00,63.1,59.5,29.99,West,270,2.0,4.0,88,0.00,,,0.00,meteohub,2013-06-16 05:07:00,
2013-06-15 22:12:00,63.3,59.7,29.99,West,270,3.0,4.0,88,0.00,,,0.00,meteohub,2013-06-16 05:12:00,
2013-06-15 22:17:00,63.0,59.7,29.99,West,270,2.0,4.0,89,0.00,,,0.00,meteohub,2013-06-16 05:17:00,
2013-06-15 22:22:00,63.0,59.7,29.99,West,270,0.0,4.0,89,0.00,,,0.00,meteohub,2013-06-16 05:22:00,
2013-06-15 22:27:00,62.4,59.2,30.00,West,270,1.0,3.0,89,0.00,,,0.00,meteohub,2013-06-16 05:27:00,
2013-06-15 22:32:00,62.1,58.5,30.00,West,270,0.0,3.0,88,0.00,,,0.00,meteohub,2013-06-16 05:32:00,
2013-06-15 22:37:00,61.5,58.3,30.00,West,270,2.0,2.0,89,0.00,,,0.00,meteohub,2013-06-16 05:37:00,
2013-06-15 22:42:00,61.3,58.5,30.00,West,270,2.0,2.0,90,0.00,,,0.00,meteohub,2013-06-16 05:42:00,
2013-06-15 22:47:00,61.2,58.3,29.99,West,270,0.0,2.0,90,0.00,,,0.00,meteohub,2013-06-16 05:47:00,
2013-06-15 22:52:00,60.8,57.9,30.00,West,270,2.0,2.0,90,0.00,,,0.00,meteohub,2013-06-16 05:52:00,
2013-06-15 22:57:00,60.8,58.1,29.99,West,270,1.0,2.0,91,0.00,,,0.00,meteohub,2013-06-16 05:57:00,
2013-06-15 23:02:00,60.8,58.5,29.99,West,270,1.0,2.0,92,0.00,,,0.00,meteohub,2013-06-16 06:02:00,
2013-06-15 23:07:00,60.6,57.9,29.99,West,270,0.0,3.0,91,0.00,,,0.00,meteohub,2013-06-16 06:07:00,
2013-06-15 23:12:00,60.3,57.9,30.00,West,270,2.0,3.0,92,0.00,,,0.00,meteohub,2013-06-16 06:12:00,
2013-06-15 23:17:00,60.3,58.3,30.00,West,270,2.0,3.0,93,0.00,,,0.00,meteohub,2013-06-16 06:17:00,
2013-06-15 23:22:00,60.3,57.9,30.00,West,270,1.0,2.0,92,0.00,,,0.00,meteohub,2013-06-16 06:22:00,
2013-06-15 23:27:00,60.1,57.7,29.99,West,270,0.0,2.0,92,0.00,,,0.00,meteohub,2013-06-16 06:27:00,
2013-06-15 23:32:00,59.9,57.9,30.00,West,270,2.0,2.0,93,0.00,,,0.00,meteohub,2013-06-16 06:32:00,
2013-06-15 23:37:00,59.7,57.7,29.99,West,270,2.0,2.0,93,0.00,,,0.00,meteohub,2013-06-16 06:37:00,
2013-06-15 23:42:00,59.7,58.3,29.99,West,270,2.0,2.0,95,0.00,,,0.00,meteohub,2013-06-16 06:42:00,
2013-06-15 23:47:00,59.7,58.3,29.99,West,270,0.0,2.0,95,0.00,,,0.00,meteohub,2013-06-16 06:47:00,
2013-06-15 23:52:00,59.7,58.3,29.99,West,270,0.0,2.0,95,0.00,,,0.00,meteohub,2013-06-16 06:52:00,
2013-06-15 23:57:00,59.7,58.6,29.99,West,270,0.0,2.0,96,0.00,,,0.00,meteohub,2013-06-16 06:57:00,